Topeka Forbes, KS

6:41 PM CDT on May 27, 2018 (GMT -0500)
Forbes

Weather History for KFOE - May, 2013

Change the Weather History Date:

Saturday, May 18, 2013

  Actual Average Record
Temperature  
Mean Temperature 72 °F -  
Max Temperature 82 °F 78 °F 94 °F (1975)
Min Temperature 61 °F 55 °F 37 °F (2002)
Cooling Degree Days 6    
Growing Degree Days 22 (Base 50)    
Moisture  
Dew Point 66 °F    
Average Humidity 79    
Maximum Humidity 94    
Minimum Humidity 67    
Precipitation  
Precipitation 0.00 in - - ()
Sea Level Pressure  
Sea Level Pressure 29.81 in    
Wind  
Wind Speed 8 mph (SE)    
Max Wind Speed 16 mph    
Max Gust Speed 23 mph    
Visibility 9 miles    
Events      
Averages and records for this station are not official NWS values.
T = Trace of Precipitation, MM = Missing Value Source: NWS Daily Summary

Daily Weather History Graph

Daily Weather History Graph

Search for Another Location

Airport or City:

Astronomy

May. 18, 2013 Rise Set
Actual Time 6:07 AM CDT 8:31 PM CDT
Civil Twilight 5:36 AM CDT 9:01 PM CDT
Nautical Twilight 4:59 AM CDT 9:39 PM CDT
Astronomical Twilight 4:18 AM CDT 10:21 PM CDT
Moon 1:39 PM CDT (5/18) 1:56 AM CDT (5/18)
Length of Visible Light 15h 24m
Length of Day
14h 24m
First Quarter, 55% of the Moon is Illuminated
May 18
First Quarter
May 24
Full
May 31
Last Quarter
Jun 8
New
Jun 16
First Quarter

Hourly Weather History & Observations

Time (CDT) Temp. Heat Index Dew Point Humidity Pressure Visibility Wind Dir Wind Speed Gust Speed Precip Events Conditions
12:53 AM 63.0 °F - 59.0 °F 87% 29.90 in 10.0 mi ESE 5.8 mph - N/A   Clear
1:53 AM 62.1 °F - 59.0 °F 90% 29.88 in 10.0 mi SE 4.6 mph - N/A   Clear
2:53 AM 61.0 °F - 59.0 °F 93% 29.87 in 10.0 mi ESE 3.5 mph - N/A   Clear
3:53 AM 61.0 °F - 59.0 °F 93% 29.87 in 10.0 mi SE 3.5 mph - N/A   Clear
4:53 AM 61.0 °F - 59.0 °F 93% 29.86 in 10.0 mi SE 4.6 mph - N/A   Mostly Cloudy
5:53 AM 62.1 °F - 60.1 °F 93% 29.86 in 10.0 mi ESE 4.6 mph - N/A   Partly Cloudy
6:15 AM 62.6 °F - 60.8 °F 94% 29.89 in 10.0 mi SE 3.5 mph - N/A   Mostly Cloudy
6:53 AM 63.0 °F - 61.0 °F 93% 29.87 in 10.0 mi ESE 5.8 mph - N/A   Overcast
7:30 AM 64.4 °F - 60.8 °F 88% 29.89 in 10.0 mi SE 5.8 mph - N/A   Scattered Clouds
7:53 AM 66.0 °F - 62.1 °F 87% 29.85 in 10.0 mi ESE 8.1 mph - N/A   Clear
8:53 AM 73.0 °F - 64.0 °F 73% 29.84 in 10.0 mi SE 9.2 mph - N/A   Clear
9:33 AM 75.2 °F - 64.4 °F 69% 29.86 in 10.0 mi SE 11.5 mph - N/A   Mostly Cloudy
9:53 AM 75.9 °F - 66.0 °F 71% 29.83 in 10.0 mi ESE 8.1 mph - N/A   Overcast
10:53 AM 78.1 °F - 66.9 °F 68% 29.84 in 10.0 mi SE 12.7 mph - N/A   Overcast
11:53 AM 80.1 °F 82.7 °F 68.0 °F 67% 29.83 in 10.0 mi SE 12.7 mph 23.0 mph N/A   Overcast
12:07 PM 78.8 °F - 68.0 °F 69% 29.85 in 10.0 mi SE 15.0 mph 23.0 mph N/A   Overcast
12:53 PM 79.0 °F - 68.0 °F 69% 29.83 in 10.0 mi SE 10.4 mph - N/A   Overcast
2:53 PM 82.9 °F 87.5 °F 71.1 °F 67% 29.79 in 9.0 mi SE 12.7 mph 21.9 mph N/A   Mostly Cloudy
3:53 PM 82.9 °F 87.5 °F 71.1 °F 67% 29.78 in 9.0 mi SSE 12.7 mph 20.7 mph N/A   Mostly Cloudy
4:23 PM 82.4 °F 87.2 °F 71.6 °F 70% 29.79 in 8.0 mi SE 12.7 mph - N/A   Scattered Clouds
4:53 PM 82.0 °F 86.3 °F 71.1 °F 69% 29.76 in 8.0 mi SE 15.0 mph 23.0 mph N/A   Partly Cloudy
5:53 PM 82.0 °F 86.3 °F 71.1 °F 69% 29.75 in 8.0 mi SE 11.5 mph 17.3 mph N/A   Scattered Clouds
6:53 PM 82.0 °F 86.3 °F 71.1 °F 69% 29.70 in 9.0 mi ESE 16.1 mph 23.0 mph N/A   Scattered Clouds
7:53 PM 79.0 °F - 72.0 °F 79% 29.70 in 7.0 mi SE 11.5 mph 23.0 mph N/A   Partly Cloudy
8:39 PM 78.8 °F - 71.6 °F 78% 29.72 in 9.0 mi SE 10.4 mph - N/A   Mostly Cloudy
8:53 PM 78.1 °F - 71.1 °F 79% 29.69 in 9.0 mi SE 10.4 mph - N/A   Mostly Cloudy
9:53 PM 75.9 °F - 71.1 °F 85% 29.69 in 9.0 mi SE 10.4 mph - N/A   Scattered Clouds
10:09 PM 75.2 °F - 71.6 °F 89% 29.72 in 9.0 mi SE 11.5 mph - N/A   Mostly Cloudy
11:53 PM 77.0 °F - 72.0 °F 84% 29.78 in 7.0 mi SW 8.1 mph - N/A   Overcast